Regional Weather Roundup
Issued by NWS Little Rock, AR

Home | Current Version | Previous Version | Text Only | Print | Product List | Glossary Off
Versions: 1 2 3 4 5 6 7 8 9 10 11 12 13 14 15 16 17 18 19 20 21 22 23 24 25 26 27 28 29 30 31 32 33 34 35 36 37 38 39 40 41 42 43 44 45 46 47 48 49 50

000
ASUS44 KLZK 220005
RWRLZK

WEATHER ROUNDUP FOR ARKANSAS
NATIONAL WEATHER SERVICE LITTLE ROCK AR
700 PM CDT SAT APR 21 2018

NOTE: "FAIR" INDICATES FEW OR NO CLOUDS BELOW 12,000 FEET WITH NO
SIGNIFICANT WEATHER AND/OR OBSTRUCTIONS TO VISIBILITY.

ARZ001-003-010-029-220100-
NORTHWEST ARKANSAS

CITY           SKY/WX    TMP DP  RH WIND       PRES   REMARKS
FAYETTEVILLE   HVY RAIN  54  52  93 W6        30.05R FOG
6HR MIN TEMP:  54; 6HR MAX TEMP:  67; 6HR PCP:  0.18;

FORT SMITH     LGT RAIN  58  56  93 NW6       30.01R FOG
6HR MIN TEMP:  58; 6HR MAX TEMP:  69; 6HR PCP:  0.25;

HARRISON       LGT RAIN  62  44  51 E13       30.04F
6HR MIN TEMP:  62; 6HR MAX TEMP:  68; 6HR PCP: TRACE;

BENTONVILLE    RAIN      52  51  97 N7        30.06R
6HR MIN TEMP:  52; 6HR MAX TEMP:  66; 6HR PCP:  0.21;

ROGERS         RAIN      52  50  93 NW6       30.05R
6HR MIN TEMP:  52; 6HR MAX TEMP:  65; 6HR PCP:  0.16;

SILOAM SPGS    LGT RAIN  52  51  97 NW5       30.07R
6HR MIN TEMP:  52; 6HR MAX TEMP:  65; 6HR PCP:  0.59;

HIGHFILL       RAIN      53  51  93 NW8       30.05R FOG
6HR MIN TEMP:  53; 6HR MAX TEMP:  68; 6HR PCP:  0.35;

SPRINGDALE     LGT RAIN  55  54  94 NW7       30.04R
$$

ARZ004-005-016-220100-
NORTH CENTRAL ARKANSAS

CITY           SKY/WX    TMP DP  RH WIND       PRES   REMARKS
BATESVILLE     CLOUDY    64  47  53 CALM      30.09S
6HR MIN TEMP:  64; 6HR MAX TEMP:  72;

FLIPPIN        CLOUDY    64  43  45 E8        30.05F HAZE
6HR MIN TEMP:  65; 6HR MAX TEMP:  70;

MTN HOME       CLOUDY    65  41  41 SE10      30.04F
6HR MIN TEMP:  64; 6HR MAX TEMP:  70;

$$

ARZ040-041-220100-
WEST CENTRAL ARKANSAS

CITY           SKY/WX    TMP DP  RH WIND       PRES   REMARKS
MENA           CLOUDY    59  59 100 CALM      30.00S
MOUNT IDA      LGT RAIN  59  57  93 CALM      29.98F
6HR MIN TEMP:  59; 6HR MAX TEMP:  68; 6HR PCP:  0.03;

$$

ARZ009-017-025-026-028-220100-
NORTHEAST ARKANSAS

CITY           SKY/WX    TMP DP  RH WIND       PRES   REMARKS
CORNING        FAIR      68  41  37 E10       30.10F
JONESBORO      FAIR      69  48  47 SE5       30.09S
6HR MIN TEMP:  69; 6HR MAX TEMP:  75;

NEWPORT        FAIR      65  50  58 E13       30.07F
6HR MIN TEMP:  65; 6HR MAX TEMP:  74; 6HR PCP: TRACE;

WALNUT RIDGE   FAIR      67  45  45 E7        30.11S
6HR MIN TEMP:  67; 6HR MAX TEMP:  74;

BLYTHEVILLE    FAIR      70  44  39 E7        30.12F
6HR MIN TEMP:  70; 6HR MAX TEMP:  75;

$$

ARZ022-023-033-042-044-220100-
CENTRAL ARKANSAS

CITY           SKY/WX    TMP DP  RH WIND       PRES   REMARKS
LITTLE ROCK    CLOUDY    66  49  54 E12       30.02F
6HR MIN TEMP:  66; 6HR MAX TEMP:  73;

N LITTLE ROCK    N/A     65  50  58 E10       29.99F
6HR MIN TEMP:  65; 6HR MAX TEMP:  69;

JACKSONVILLE   CLOUDY    66  49  54 E14       30.01F
6HR MIN TEMP:  65; 6HR MAX TEMP:  73; 6HR PCP: TRACE;

CONWAY         PTCLDY    66  48  52 E6        30.00S HAZE
SEARCY         MOCLDY    67  50  54 E6        30.05F
6HR MIN TEMP:  65; 6HR MAX TEMP:  74;

HOT SPRINGS    CLOUDY    62  56  80 E3        30.00R
6HR MIN TEMP:  62; 6HR MAX TEMP:  71; 6HR PCP: TRACE;

RUSSELLVILLE   MOCLDY    67  47  48 SE7       29.99F
6HR MIN TEMP:  66; 6HR MAX TEMP:  69;

CLINTON        FAIR      66  46  48 E8        30.03F
$$

ARZ036-220100-
EAST ARKANSAS

CITY           SKY/WX    TMP DP  RH WIND       PRES   REMARKS
WEST MEMPHIS   FAIR      71  47  42 E6        30.06F
6HR MIN TEMP:  70; 6HR MAX TEMP:  75;

$$

ARZ050-053-066-070-073-220100-
SOUTHWEST ARKANSAS

CITY           SKY/WX    TMP DP  RH WIND       PRES   REMARKS
ARKADELPHIA    LGT RAIN  63  55  75 E3        30.01S
6HR MIN TEMP:  63; 6HR MAX TEMP:  71; 6HR PCP: TRACE;

CAMDEN         MOCLDY    66  48  52 VRB5      30.00F
TEXARKANA      RAIN      57  57 100 N9        29.98R FOG
6HR MIN TEMP:  57; 6HR MAX TEMP:  67; 6HR PCP:  0.24;

EL DORADO      LGT RAIN  65  54  67 E8        29.99F
6HR MIN TEMP:  65; 6HR MAX TEMP:  74; 6HR PCP: TRACE;

DE QUEEN       RAIN      57  57 100 CALM      29.99R FOG
6HR MIN TEMP:  57; 6HR MAX TEMP:  67;

$$

ARZ056-057-069-220100-
SOUTHEAST ARKANSAS

CITY           SKY/WX    TMP DP  RH WIND       PRES   REMARKS
PINE BLUFF     FAIR      66  53  63 E3        30.04F
6HR MIN TEMP:  66; 6HR MAX TEMP:  73;

STUTTGART      FAIR      69  52  54 E3        30.05S
6HR MIN TEMP:  68; 6HR MAX TEMP:  75;

MONTICELLO     FAIR      67  53  61 CALM      30.04F
6HR MIN TEMP:  67; 6HR MAX TEMP:  74;


$$





USA.gov is the U.S. government's official web portal to all federal, state and local government web resources and services.